Weather History for KLFK - October, 2014

Change the Weather History Date:

Sunday, October 5, 2014

  Actual Average Record
Temperature  
Mean Temperature 69 °F 71 °F  
Max Temperature 85 °F 83 °F 97 °F (1917)
Min Temperature 52 °F 59 °F 41 °F (1987)
Degree Days  
Heating Degree Days 0 1  
Month to date heating degree days 0 5  
Since 1 July heating degree days 0 9  
Cooling Degree Days 4 7  
Month to date cooling degree days 52 37  
Year to date cooling degree days 2782 2434  
Growing Degree Days 18 (Base 50)    
Moisture  
Dew Point 54 °F    
Average Humidity 59    
Maximum Humidity 83    
Minimum Humidity 34    
Precipitation  
Precipitation 0.00 in 0.14 in 0.80 in (2001)
Month to date precipitation 0.07 0.64  
Year to date precipitation 35.07 35.31  
Snow  
Snow 0.00 in - - ()
Month to date snowfall 0.0  
Since 1 July snowfall 0.0  
Since 1 September snowfall 0.0  
Snow Depth 0.00 in    
Sea Level Pressure  
Sea Level Pressure 29.96 in    
Wind  
Wind Speed 7 mph (SSE)    
Max Wind Speed 16 mph    
Max Gust Speed 26 mph    
Visibility 10 miles    
Events      
T = Trace of Precipitation, MM = Missing Value Source: NWS Daily Summary

Daily Weather History Graph

Daily Weather History Graph

Search for Another Location

Airport or City:

Trip Planner

Search our weather history database for the weather conditions in past years. The results will help you decide how hot, cold, wet, or windy it might be!

Date:

Astronomy

Oct. 05, 2014 Rise Set
Actual Time 7:15 AM CDT 6:59 PM CDT
Civil Twilight 6:51 AM CDT 7:23 PM CDT
Nautical Twilight 6:22 AM CDT 7:51 PM CDT
Astronomical Twilight 5:54 AM CDT 8:19 PM CDT
Moon 5:07 PM CDT (10/5) 4:05 AM CDT (10/5)
Length of Visible Light 12h 32m
Length of Day
11h 43m
Waxing Gibbous, 89% of the Moon is Illuminated
Oct 5
Waxing Gibbous
Oct 8
Full
Oct 15
Last Quarter
Oct 23
New
Oct 30
First Quarter

Hourly Weather History & Observations

Time (CDT) Temp. Heat Index Dew Point Humidity Pressure Visibility Wind Dir Wind Speed Gust Speed Precip Events Conditions
12:53 AM 55.0 °F - 50.0 °F 83% 30.02 in 10.0 mi Calm Calm - N/A   Clear
1:53 AM 55.0 °F - 48.0 °F 77% 30.01 in 10.0 mi ESE 3.5 mph - N/A   Clear
2:53 AM 53.1 °F - 48.0 °F 83% 30.00 in 10.0 mi ESE 3.5 mph - N/A   Clear
3:53 AM 54.0 °F - 48.0 °F 80% 30.00 in 10.0 mi SE 3.5 mph - N/A   Clear
4:53 AM 53.1 °F - 46.9 °F 80% 29.99 in 10.0 mi SE 5.8 mph - N/A   Clear
5:53 AM 54.0 °F - 46.9 °F 77% 29.99 in 10.0 mi SE 8.1 mph - N/A   Clear
6:53 AM 55.0 °F - 46.9 °F 74% 30.00 in 10.0 mi SSE 4.6 mph - N/A   Clear
7:53 AM 55.9 °F - 48.0 °F 75% 29.99 in 10.0 mi SE 4.6 mph - N/A   Clear
8:53 AM 62.1 °F - 51.1 °F 67% 30.01 in 10.0 mi SSE 6.9 mph - N/A   Clear
9:53 AM 69.1 °F - 52.0 °F 54% 30.01 in 10.0 mi SSE 9.2 mph - N/A   Clear
10:53 AM 73.9 °F - 55.0 °F 52% 30.02 in 10.0 mi South 9.2 mph - N/A   Clear
11:53 AM 79.0 °F - 55.9 °F 45% 30.00 in 10.0 mi SSW 13.8 mph 20.7 mph N/A   Clear
12:53 PM 81.0 °F 80.7 °F 55.0 °F 41% 29.98 in 10.0 mi SW 11.5 mph 19.6 mph N/A   Clear
1:53 PM 82.9 °F 82.0 °F 55.0 °F 38% 29.94 in 10.0 mi SW 9.2 mph 18.4 mph N/A   Clear
2:53 PM 84.9 °F 83.3 °F 54.0 °F 34% 29.91 in 10.0 mi Variable 5.8 mph - N/A   Clear
3:53 PM 84.9 °F 83.3 °F 54.0 °F 34% 29.90 in 10.0 mi South 10.4 mph - N/A   Clear
4:53 PM 84.0 °F 82.6 °F 54.0 °F 35% 29.88 in 10.0 mi South 10.4 mph - N/A   Clear
5:53 PM 82.9 °F 82.4 °F 57.0 °F 41% 29.88 in 10.0 mi South 6.9 mph - N/A   Clear
6:53 PM 77.0 °F - 57.9 °F 52% 29.88 in 10.0 mi SSE 4.6 mph - N/A   Clear
7:53 PM 72.0 °F - 60.1 °F 66% 29.88 in 10.0 mi SE 4.6 mph - N/A   Clear
8:53 PM 71.1 °F - 60.1 °F 68% 29.90 in 10.0 mi SSE 5.8 mph - N/A   Clear
9:53 PM 69.1 °F - 60.1 °F 73% 29.91 in 10.0 mi SE 4.6 mph - N/A   Clear
10:53 PM 68.0 °F - 60.1 °F 76% 29.91 in 10.0 mi SE 4.6 mph - N/A   Clear
11:53 PM 66.9 °F - 60.1 °F 79% 29.91 in 10.0 mi SE 4.6 mph - N/A   Clear